Location: LDNL
(36.4545°S, 141.6685°E)
Time: 20:11:57
(UTC+10:00)

Altair - Visible Passes

Search period start: 29 May 2024 00:00
Search period end: 08 June 2024 00:00
Orbit: 1501 x 1683 km, 47.3° (Epoch: 28 May)

Date Brightness Start Highest point End Pass type
(mag) Time Alt. Az. Time Alt. Az. Time Alt. Az.
29 May 9.1 03:12:30 20° NE 03:12:30 20° NE 03:14:48 10° NE visible
29 May 8.3 05:10:33 28° NW 05:10:33 28° NW 05:16:53 10° N visible
29 May 8.6 18:11:46 10° N 18:19:07 24° NE 18:25:12 13° E visible
29 May 7.3 20:13:12 10° NW 20:22:56 82° NE 20:23:15 80° ENE visible
29 May 9.4 22:19:06 10° W 22:21:17 18° W 22:21:17 18° W visible
30 May 9.6 02:49:11 12° ENE 02:49:11 12° ENE 02:49:35 10° ENE visible
30 May 8.5 04:47:14 26° NNW 04:47:14 26° NNW 04:52:06 10° N visible
30 May 8.7 17:47:06 10° N 17:54:01 22° NE 18:00:46 10° E visible
30 May 7.4 19:48:00 10° NW 19:57:44 76° NE 19:59:43 60° ESE visible
30 May 8.9 21:53:42 10° W 21:57:46 27° W 21:57:46 27° W visible
31 May 8.8 04:23:55 22° N 04:23:55 22° N 04:27:14 10° NNE visible
31 May 7.5 19:22:49 10° NW 19:32:33 71° NE 19:36:10 43° ESE visible
31 May 8.5 21:28:19 10° W 21:34:12 38° WSW 21:34:12 38° WSW visible
01 Jun 9.1 04:00:35 16° N 04:00:35 16° N 04:02:22 10° NNE visible
01 Jun 7.6 18:57:40 10° NW 19:07:21 66° NE 19:12:33 30° ESE visible
01 Jun 8.0 21:02:56 10° W 21:10:36 50° SW 21:10:36 50° SW visible
02 Jun 9.5 03:37:14 11° NNE 03:37:14 11° NNE 03:37:26 10° NNE visible
02 Jun 7.7 18:32:32 10° NW 18:42:10 61° NE 18:48:54 21° ESE visible
02 Jun 7.7 20:37:33 10° W 20:46:56 58° SSW 20:46:56 58° SSW visible
02 Jun 9.7 22:44:26 10° WSW 22:44:58 12° WSW 22:44:58 12° WSW visible
03 Jun 7.8 18:07:26 10° NNW 18:17:00 57° NE 18:25:13 14° ESE visible
03 Jun 7.6 20:12:11 10° WNW 20:21:49 61° SSW 20:23:15 56° S visible
03 Jun 9.4 22:19:04 10° WSW 22:21:16 18° WSW 22:21:16 18° WSW visible
04 Jun 7.9 17:42:22 10° NNW 17:51:50 52° NE 18:00:59 10° ESE visible
04 Jun 7.7 19:46:49 10° WNW 19:56:32 64° SSW 19:59:32 46° SSE visible
04 Jun 9.0 21:53:41 10° WSW 21:57:33 25° WSW 21:57:33 25° WSW visible
05 Jun 7.7 19:21:29 10° WNW 19:31:16 68° SSW 19:35:47 35° SE visible
05 Jun 8.7 21:28:18 10° WSW 21:33:48 32° SW 21:33:48 32° SW visible
06 Jun 7.6 18:56:08 10° WNW 19:06:00 72° SSW 19:12:00 26° SE visible
06 Jun 8.3 21:02:54 10° WSW 21:10:01 40° SSW 21:10:01 40° SSW visible
07 Jun 7.7 18:30:49 10° WNW 18:40:44 76° SSW 18:48:12 19° SE visible
07 Jun 8.1 20:37:29 10° WSW 20:46:13 44° SSW 20:46:13 44° SSW visible
07 Jun 9.7 22:43:49 10° WSW 22:44:14 11° WSW 22:44:14 11° WSW visible
